This is the latest recevied weather packets stored in our database for station/object K1FSY-9. If no packets are shown the sender has not sent any weather packets the latest 10 day(s).
| Time | Temp. | Humidity | Pressure | Rain* | Wind** | Luminosity | Snow |
|---|---|---|---|---|---|---|---|
| 1777997416 | 25.56° C | 47% | 1005.4 hPa | 0 mm | - | - | - |
| 1777995615 | 24.44° C | 50% | 1006 hPa | 0 mm | - | - | - |
| 1777993811 | 24.44° C | 49% | 1006.4 hPa | 0 mm | - | - | - |
| 1777988408 | 15° C | 82% | 1007.4 hPa | 0 mm | - | - | - |
| 1777986839 | 13.89° C | 80% | 1008.1 hPa | 0 mm | - | - | - |
| 1777986606 | 13.89° C | 80% | 1008.1 hPa | 0 mm | - | - | - |
| 1777984805 | 13.33° C | 80% | 1008.4 hPa | 0 mm | - | - | - |
| 1777983004 | 12.78° C | 81% | 1008.4 hPa | 0 mm | - | - | - |
| 1777981201 | 11.67° C | 86% | 1008.4 hPa | 0 mm | - | - | - |
| 1777824377 | 10.56° C | 46% | 1007.1 hPa | 0 mm | - | - | - |
| 1777820771 | 10.56° C | 50% | 1007.4 hPa | 0 mm | - | - | - |
| 1777818969 | 9.44° C | 51% | 1007.4 hPa | 0 mm | - | - | - |
| 1777817165 | 8.33° C | 57% | 1007.1 hPa | 0 mm | - | - | - |
| 1777815362 | 7.22° C | 61% | 1007.4 hPa | 0 mm | - | - | - |
| 1777813559 | 6.11° C | 66% | 1007.7 hPa | 0 mm | - | - | - |
| 1777811753 | 6.11° C | 66% | 1007.7 hPa | 0 mm | - | - | - |
| 1777809959 | 5° C | 70% | 1008.1 hPa | 0 mm | - | - | - |
| 1777804542 | 2.78° C | 74% | 1007.7 hPa | 0 mm | - | - | - |
| 1777800939 | 2.78° C | 74% | 1007.4 hPa | 0 mm | - | - | - |
| 1777799136 | 2.78° C | 72% | 1008.1 hPa | 0 mm | - | - | - |
| 1777797335 | 3.33° C | 71% | 1008.1 hPa | 0 mm | - | - | - |
| 1777795532 | 3.89° C | 68% | 1008.1 hPa | 0 mm | - | - | - |
| 1777793730 | 3.89° C | 65% | 1008.4 hPa | 0 mm | - | - | - |
| 1777790126 | 5° C | 61% | 1008.4 hPa | 0 mm | - | - | - |
| 1777788322 | 5° C | 60% | 1008.8 hPa | 0 mm | - | - | - |
* Rain latest 24 hours (hover to see other rain measurements)
** Current wind speed in m/s (hover to see current wind gust speed)